This demonstration page uses our WeatherBlox Daily Observations layout. Learn more.

Left ArrowRight Arrow

39.01783, -85.05884

Hourly Observations for February 4, 2016

Temp ( °F °C ) Dew Point ( °F °C ) Humidity (%) Winds ( mph kmh ) Pressure ( in mb ) Visibility ( mi km ) Precip ( " mm )
12:52 am 00:52 Cloudy 35 1.7 28 -2.2 76 76 W 15 24 30.08 1019 10 16 N/A
1:52 am 01:52 Cloudy 35 1.7 26 -3.3 70 70 WNW 15 24 30.11 1020 10 16 N/A
2:16 am 02:16 Cloudy 34 1 27 -3 75 75 NW 14 22 30.18 1022 10 16 N/A
2:52 am 02:52 Cloudy 33 0.6 25 -3.9 72 72 WNW 12 19 30.14 1021 10 16 N/A
3:52 am 03:52 Cloudy 33 0.6 24 -4.4 70 70 WNW 9 15 30.15 1021 10 16 N/A
4:52 am 04:52 Cloudy 32 undefined 23 -5 69 69 NW 10 17 30.16 1021 10 16 N/A
5:52 am 05:52 Cloudy 32 undefined 23 -5 69 69 WNW 10 17 30.18 1022 10 16 N/A
6:52 am 06:52 Cloudy with Light Snow 32 undefined 23 -5 69 69 NW 9 15 30.19 1022 9 14 N/A
7:52 am 07:52 Cloudy 31 -0.6 23 -5 72 72 WNW 8 13 30.21 1023 10 16 N/A
8:52 am 08:52 Cloudy 31 -0.6 22 -5.6 69 69 W 6 9 30.22 1024 10 16 N/A
9:52 am 09:52 Cloudy 32 undefined 22 -5.6 66 66 WNW 8 13 30.24 1024 10 16 N/A
10:52 am 10:52 Cloudy 32 undefined 22 -5.6 66 66 W 8 13 30.25 1024 10 16 N/A
11:52 am 11:52 Cloudy 32 undefined 22 -5.6 66 66 W 12 19 30.25 1024 10 16 N/A
12:22 pm 12:22 Cloudy 32 undefined 21 -6 64 64 WSW 8 13 30.27 1025 10 16 N/A
12:52 pm 12:52 Cloudy 33 0.6 21 -6.1 61 61 W 12 19 30.23 1024 10 16 N/A
1:52 pm 13:52 Cloudy 33 0.6 19 -7.2 56 56 W 13 20 30.22 1023 10 16 N/A
2:52 pm 14:52 Cloudy 33 0.6 19 -7.2 56 56 W 13 20 30.22 1023 10 16 N/A
3:52 pm 15:52 Cloudy 33 0.6 20 -6.7 58 58 WNW 8 13 30.23 1024 10 16 N/A
4:52 pm 16:52 Cloudy 33 0.6 20 -6.7 58 58 NW 9 15 30.25 1024 10 16 N/A
5:52 pm 17:52 Partly Cloudy 32 undefined 20 -6.7 61 61 NW 9 15 30.26 1025 10 16 N/A
6:52 pm 18:52 Mostly Clear 29 -1.7 19 -7.2 66 66 NW 8 13 30.29 1026 10 16 N/A
7:52 pm 19:52 Clear 28 -2.2 18 -7.8 66 66 NNW 6 9 30.31 1026 10 16 N/A
8:52 pm 20:52 Clear 27 -2.8 18 -7.8 69 69 NW 5 7 30.32 1027 10 16 N/A
9:52 pm 21:52 Clear 26 -3.3 17 -8.3 69 69 N N/A 30.34 1027 10 16 N/A
10:52 pm 22:52 Clear 25 -3.9 17 -8.3 72 72 NW 5 7 30.35 1028 10 16 N/A
11:52 pm 23:52 Clear 25 -3.9 17 -8.3 72 72 WNW 3 6 30.36 1028 10 16 N/A

Powered by AerisWeather